Location: San Antonio
(29.4240°N, 98.4930°W)
Time: 08:59:11
(UTC-05:00)

Envisat - Pass Details

Date: 18 June 2024
Orbit: 762 x 764 km, 98.3° (Epoch: 12 July)

Event Time Altitude Azimuth Distance (km) Brightness Sun altitude
Rises 05:15:08 0° 2° (N) 3,227 6.9 -15.3°
Reaches altitude 10° 05:17:33 10° 355° (N) 2,298 5.9 -14.9°
Maximum altitude 05:22:15 40° 287° (WNW) 1,116 3.6 -14.1°
Enters shadow 05:25:19 20° 228° (SW) 1,722 4.2 -13.5°
